Change the Weather History Date:

Sunday, August 7, 2011

  Actual Average Record
Temperature  
Mean Temperature 90 °F 85 °F  
Max Temperature 99 °F 95 °F 101 °F (1940)
Min Temperature 80 °F 75 °F 71 °F (1999)
Degree Days  
Heating Degree Days 0 0  
Month to date heating degree days 0 0  
Since 1 June heating degree days 0 0  
Since 1 July heating degree days 0 0  
Cooling Degree Days 25 20  
Month to date cooling degree days 158 140  
Year to date cooling degree days 2457 2090  
Since 1 June cooling degree days 1380 1249  
Growing Degree Days 39 (Base 50)    
Moisture  
Dew Point 76 °F    
Average Humidity 68    
Maximum Humidity 91    
Minimum Humidity 45    
Precipitation  
Precipitation 0.00 in 0.05 in 0.91 in (1894)
Month to date precipitation 0.00 0.41  
Year to date precipitation 7.52 16.83  
Snow  
Snow 0.00 in - - ()
Month to date snowfall 0.0  
Since 1 June snowfall 0.0  
Since 1 July snowfall 0.0  
Snow Depth 0.00 in    
Sea Level Pressure  
Sea Level Pressure 29.89 in    
Wind  
Wind Speed 16 mph (SSE)    
Max Wind Speed 28 mph    
Max Gust Speed 33 mph    
Visibility 10 miles    
Events      
T = Trace of Precipitation, MM = Missing Value Source: NWS Daily Summary

Daily Weather History Graph

Daily Weather History Graph

Search for Another Location

Airport or City:

Trip Planner

Search our weather history database for the weather conditions in past years. The results will help you decide how hot, cold, wet, or windy it might be!

Date:

Astronomy

Aug. 07, 2011 Rise Set
Actual Time 6:56 AM CDT 8:15 PM CDT
Civil Twilight 6:31 AM CDT 8:40 PM CDT
Nautical Twilight 6:01 AM CDT 9:09 PM CDT
Astronomical Twilight 5:30 AM CDT 9:40 PM CDT
Moon 3:18 PM CDT (8/7) 1:07 AM CDT (8/7)
Length of Visible Light 14h 08m
Length of Day
13h 19m
Waxing Gibbous, 64% of the Moon is Illuminated
Aug 7
Waxing Gibbous
Aug 13
Full
Aug 21
Last Quarter
Aug 28
New
Sep 4
First Quarter

Hourly Weather History & Observations

Time (CDT) Temp. Heat Index Dew Point Humidity Pressure Visibility Wind Dir Wind Speed Gust Speed Precip Events Conditions
12:51 AM 82.9 °F 91.8 °F 77.0 °F 82% 29.92 in 10.0 mi SSE 13.8 mph - N/A   Partly Cloudy
1:51 AM 82.9 °F 91.8 °F 77.0 °F 82% 29.91 in 10.0 mi South 10.4 mph - N/A   Partly Cloudy
2:51 AM 82.0 °F 90.2 °F 77.0 °F 85% 29.90 in 10.0 mi SSE 10.4 mph - N/A   Partly Cloudy
3:48 AM 82.4 °F 90.9 °F 77.0 °F 84% 29.91 in 10.0 mi SSE 9.2 mph - N/A   Mostly Cloudy
3:51 AM 82.0 °F 90.2 °F 77.0 °F 85% 29.90 in 10.0 mi SSE 9.2 mph - N/A   Mostly Cloudy
4:01 AM 82.4 °F 90.9 °F 77.0 °F 84% 29.90 in 10.0 mi SSE 8.1 mph - N/A   Scattered Clouds
4:51 AM 81.0 °F 87.9 °F 77.0 °F 88% 29.89 in 10.0 mi SSE 9.2 mph - N/A   Partly Cloudy
5:51 AM 81.0 °F 87.9 °F 77.0 °F 88% 29.89 in 10.0 mi SSE 9.2 mph - N/A   Partly Cloudy
6:51 AM 80.1 °F 85.8 °F 77.0 °F 90% 29.90 in 10.0 mi SSE 8.1 mph - N/A   Partly Cloudy
7:51 AM 82.0 °F 91.0 °F 78.1 °F 88% 29.91 in 10.0 mi SSE 5.8 mph - N/A   Partly Cloudy
8:51 AM 84.9 °F 95.3 °F 77.0 °F 77% 29.92 in 10.0 mi South 13.8 mph - N/A   Scattered Clouds
9:01 AM 86.0 °F 96.9 °F 77.0 °F 74% 29.93 in 10.0 mi South 16.1 mph - N/A   Mostly Cloudy
9:42 AM 87.8 °F 97.6 °F 75.2 °F 66% 29.93 in 10.0 mi South 13.8 mph - N/A   Mostly Cloudy
9:51 AM 87.1 °F 95.4 °F 73.9 °F 65% 29.93 in 10.0 mi South 18.4 mph - N/A   Mostly Cloudy
10:51 AM 91.9 °F 101.3 °F 73.9 °F 55% 29.93 in 10.0 mi South 13.8 mph - N/A   Scattered Clouds
11:51 AM 95.0 °F 104.5 °F 73.0 °F 49% 29.92 in 10.0 mi South 15.0 mph 21.9 mph N/A   Mostly Cloudy
12:51 PM 97.0 °F 105.5 °F 72.0 °F 44% 29.90 in 10.0 mi South 15.0 mph 26.5 mph N/A   Scattered Clouds
1:51 PM 98.1 °F 108.0 °F 73.0 °F 44% 29.88 in 10.0 mi SE 19.6 mph 26.5 mph N/A   Scattered Clouds
2:51 PM 97.0 °F 105.5 °F 72.0 °F 44% 29.87 in 10.0 mi SE 21.9 mph 27.6 mph N/A   Partly Cloudy
3:51 PM 96.1 °F 104.9 °F 72.0 °F 46% 29.85 in 10.0 mi SE 19.6 mph 28.8 mph N/A   Partly Cloudy
4:51 PM 93.9 °F 104.0 °F 73.9 °F 52% 29.83 in 10.0 mi SE 24.2 mph 29.9 mph N/A   Partly Cloudy
5:51 PM 93.0 °F 103.2 °F 73.9 °F 54% 29.82 in 10.0 mi SE 25.3 mph - N/A   Partly Cloudy
6:51 PM 90.0 °F 99.0 °F 73.9 °F 59% 29.82 in 10.0 mi SE 24.2 mph 31.1 mph N/A   Partly Cloudy
7:51 PM 87.1 °F 96.3 °F 75.0 °F 67% 29.83 in 10.0 mi SE 23.0 mph 31.1 mph N/A   Partly Cloudy
8:51 PM 84.9 °F 95.3 °F 77.0 °F 77% 29.84 in 10.0 mi SSE 20.7 mph 28.8 mph N/A   Scattered Clouds
9:51 PM 84.0 °F 93.7 °F 77.0 °F 79% 29.84 in 10.0 mi SSE 21.9 mph - N/A   Partly Cloudy
10:51 PM 84.0 °F 93.7 °F 77.0 °F 79% 29.87 in 10.0 mi SSE 19.6 mph - N/A   Partly Cloudy
11:51 PM 82.9 °F 92.8 °F 78.1 °F 85% 29.88 in 10.0 mi SSE 17.3 mph - N/A   Partly Cloudy